Погода Актобе

Хотите узнать прогноз погоды Актобе? Тогда Вам сюда: Погода Актобе

Поиск расширенной информации на нашем сайте:

Полезная информация:

Новости сайта



02.01.2020
Опубликован Долгосрочный прогноз погоды по городам России и ближнего зарубежья на январь 2020 года.
Карты: Прогноз на январь и февраль 2020 года, Сравнение прогнозируемой аномалии приземной температуры воздуха на январь 2020 года по разным моделям.




Погода Актобе - сегодня

Время (UTC), дата Ветер
(°,м/с) 
Видим.   Явления Облачность Т
(°С)
Тd
(°С)
f(%) Тe
(°С)
Pmin
(гПа)
dP
(гПа)
Po
(мм)
O2
(г/м3)
Тmin Tmax R s Состояние
почвы
12 22.10.21 250 (З) 10 км    4/0 верхняя 
[Ci fib]
+13.5 +2.4 47 +12  1015.1  -0.2  742  284           
15 22.10.21 250 (З) 10{15}  н/о    4/0 верхняя 
[Ci fib]
+11.7 +0.4 46 +10  1015.5  0.3  742  287    +13.6       
18 22.10.21 210 (ЮЗ) 10{15}  н/о    5/0 верхняя 
[Ci fib]
+9.6 +1.4 57 +7  1017.3  1.6  743  289    +13.6  0.0     
21 22.10.21 230 (ЮЗ) 10{15}  н/о    5/0 верхняя 
[Ci fib]
+7.4 +3.7 77 +4  1018.1  0.6  744  291           
00 23.10.21 230 (ЮЗ) 10{15}  н/о    4/0 верхняя 
[Ci fib]
+7.1 +4.1 81 +4  1018.1  -0.1  744  291           
03 23.10.21 240 (ЮЗ) 4000 м  дымка  4/0 верхняя 
[Ci fib]
+7.3 +4.8 84 +6  1018.9  0.8  744  291           
06 23.10.21 240 (ЮЗ) 4000 м  дымка  10/10 600 м 
[Sc]
+9.1 +6.3 83 +8  1020.3  1.5  745  290  +6.9         
09 23.10.21 270 (З) 10 км    3/3 1000 м 
[Sc]
+14.5 +7.4 62 +14  1019.6  -0.2  745  284           
12 23.10.21 220 (ЮЗ) 10 км    4/0 средняя, верхняя 
[Ac trans|Ci fib]
+15.2 +7.8 61 +15  1019.6  0.2  745  283           
15 23.10.21 200 (Ю) н/о    ясно 
+11.4 +7.5 77 +10  1021.1  746  287    +15.9       
18 23.10.21 200 (Ю) н/о    ясно 
+9.8 +6.6 80 +8  1021.2  746  289    +15.9       
21 23.10.21 230 (ЮЗ) н/о    ясно 
+7.5 +4.8 83 +7  1021.2  -0.2  746  292           
00 24.10.21 180 (Ю) н/о    ясно 
+3.8 +1.2 83 +3  1020.8  -0.8  745  296           
03 24.10.21 180 (Ю) 10 км    ясно 
+1.9 -0.6 83 1020.1  -0.8  745  298           
06 24.10.21 140 (ЮВ) 10 км    3/0 верхняя 
[Ci fib]
+7.6 -0.4 57 +8  1019  -0.6  744  292  +1.7         
09 24.10.21 210 (ЮЗ) 10 км    5/0 верхняя 
[Ci fib]
+15.3 -2.1 30 +15  1016.8  -1.5  743  284           
12 24.10.21 240 (ЮЗ) 10 км    5/0 верхняя 
[Ci fib]
+15.7 -3 27 +15  1016.1  -0.6  743  283           
15 24.10.21 190 (Ю) н/о    8/0 средняя, верхняя 
[Ac trans|Ci fib]
+9.4 -1.4 47 +10  1016.8  0.2  743  289    +16.5       
18 24.10.21 230 (ЮЗ) н/о    8/0 верхняя 
[Ci]
+9.3 -2.7 43 +9  1016.1  -0.7  742  290    +16.5       
21 24.10.21 180 (Ю) н/о    8/3 600 м верхняя 
[Sc|Ci]
+5.9 -1.3 60 +7  1015.9  -0.6  742  293           
00 25.10.21 150 (ЮВ) н/о    10/5 600 м кучево-дожд., средняя 
[Cb calv|Ac und]
+5.9 -2 57 +7  1015  -0.8  741  293           
03 25.10.21 140 (ЮВ) 10 км    10/8 600 м кучево-дожд., средняя 
[Cb calv|Ac und]
+5.8 -2.8 54 +7  1014.6  -0.4  741  293           
06 25.10.21 тихо ()   10 км    10/10 1000 м 
[Sc]
+6.4 -2.3 54 +6  1013.9  -0.7  740  292  +5.7         
09 25.10.21 350 (С) 10 км  слаб. ливневой дождь  10/10 600 м кучево-дожд. 
[Cb cap]
+6.2 +3.6 83 +5  1014.1  0.2  741  291           
12 25.10.21 320 (СЗ) 10 км  {ливн. осадки}  10/10 600 м кучево-дожд. 
[Cb cap]
+4.7 +3 89 +4  1015.1  0.8  741  293           
Время (UTC), дата Ветер
(°,м/с) 
Видим.   Явления Облачность Т
(°С)
Тd
(°С)
f(%) Тe
(°С)
Pmin
(гПа)
dP
(гПа)
Po
(мм)
O2
(г/м3)
Тmin Tmax R s Состояние
почвы

Для получения пояснительной информации подведите курсор к названию столбца.

ПОГОДА Актобе - архив

Всё, что Вы хотите узнать о погоде Актобе - удобно и подробно!

Выберите нужную дату (начиная с 1 января 2019* года) и нажмите кнопку "Найти".
Будут отображены архивные сводки погоды по пункту Актобе, начиная с указанной даты.


Отображать данные в формате CSV (для использования в таблицах Excel)


Внимание! Наш архив погоды предназначен исключительно для личного некоммерческого использования в познавательных целях. Если Вам необходимы официальные справки о состоянии погоды (для производственных, юридических, коммерческих и т.п. целей), обращайтесь в органы Росгидромета.

*Примечание: данная дата относится к архиву по метеостанциям СССР (Россия, СНГ, Балтия).
Архив по метеостанциям Зарубежной Европы и Азии (кроме Китая) хранится 10 дней, по другим регионам земного шара (Китай, Африка, Америка, Австралия, Океания) - 1 день.

Актобе - район местоположения метеостанции


Название, широта, долгота, высота метеостанции:
Актобе (город) 50.3°ш. 57.2°д. 219 м над ур. моря [Казахстан]

Дополнительная информация

В oтличие oт бoльшинства пoгoдных сайтoв мы публикуем пoдрoбную метеoинфoрмацию в детальнoм прoфессиoнальнoм фoрмате.

Характеристики температуры и влажнoсти вoздуха измеряются на высoте 2 м в тени вдали oт зданий и деревьев.
Скoрoсть ветра измеряется на высoте 10 м (на урoвне рoста челoвека скoрoсть ветра ниже в 1.5-2 раза). Если метеoстанция нахoдится в гoрoде или в лесу, тo скoрoсть ветра занижена на 2-4 м/с пo сравнению с oткрытым местoм. Скoрoсть ветра над акватoриями крупных рек и oзёр, а также на вершинах хoлмoв на 2-5 м/с выше, чем в oбычных услoвиях.
Атмoсфернoе давление в разных тoчках местнoсти мoжет значительнo oтличаться oт давления на метеoстанции, в зависимoсти oт услoвий рельефа (при пoдъёме на 10 м давление пoнижается примернo на 1 мм рт.ст.).